Zurück zum Katalog

SL-18 DEB

AktivLEO
NORAD 22568·DEBRIS·🇷🇺 Russia

Gestartet Mar 25, 1993 von Plesetsk Cosmodrome

Loading…

Nächste Überflüge (nächste 24 Stunden)

TLE

AktuellSource: Space-Track

Epoche: Sep 14, 2026, 10:43 UTC

1 22568U 93014D   26257.44664446  .00000993  00000-0  25118-3 0  9991
2 22568  75.7440 285.8624 0146956 291.5688 133.8092 14.45499370747456

Verfolge SL-18 DEB in Echtzeit mit AllMySat

Download on the App Store